FENGYUN 1C DEB

基本信息
目录编号:
30669
目录名称:
FENGYUN 1C DEB
国际标识:
1999-025AQB
轨道中心:
EARTH
物体状态:
在轨
发射日期:
1999-05-10 UTC
轨道信息
数据来源: 国际轨道数据
星历时间: 2026-09-12T02:34:01+0800
半长轴: 7258.514km
偏心率: 0.0118
轨道倾角: 98.641°
近地点辐角: 128.562°
升交点赤经: 182.888°
平近点角: 260.783°
近地点: 794.726km
远地点: 966.028km
周期: 102.573分钟
每日圈数: 14.03884
详细信息
发射场:
TSC
轨道高度:
LEO
数据来源:
AOE Integration Group
参考系:
TEME
时间系统:
UTC
历元类型:
SGP4
2D轨道图
3D轨道图
轨道高度分析图
轨道倾角分析图
轨道综合分析图
查看轨道综合分析图